Regional Weather Roundup
Issued by NWS Kansas City/Pleasant Hill, MO

Home | Current Version | Previous Version | Graphics & Text | Print | Product List | Glossary Off
Versions: 1 2 3 4 5 6 7 8 9 10 11 12 13 14 15 16 17 18 19 20 21 22 23 24 25 26 27

000
ASUS43 KEAX 160710
RWREAX

WEATHER ROUNDUP FOR EASTERN KANSAS AND NORTHWEST MISSOURI
NATIONAL WEATHER SERVICE KANSAS CITY/PLEASANT HILL MO
100 AM CST MON JAN 16 2017

KSZ040-057-103>105-MOZ028-029-037-043-160800-
...KANSAS CITY METROPOLITAN AREA...

CITY           SKY/WX    TMP DP  RH WIND       PRES   REMARKS
K.C. INTL      DRZL/FOG  33  31  92 E7        30.07F VSB 1/2 WCI  27
K.C. DOWNTOWN  LGT RAIN  33  33 100 E9        30.08F VSB 3/4 WCI  25
LEES SUMMIT    FOG       33  32  96 E9        30.07F VSB 1/2 WCI  25
OLATHE - IXD   LGT RAIN  34  33  96 E12       30.05F VSB 3/4 WCI  25
OLATHE - OJC   FOG       32  32 100 E9        30.05F VSB 1   WCI  24
LAWRENCE       LGT RAIN  33  33 100 NE8       30.06F FOG     WCI  26

$$

MOZ001>008-011>017-020>025-030>033-038>040-044>046-053-054-160800-
...NORTHERN AND CENTRAL MISSOURI...

CITY           SKY/WX    TMP DP  RH WIND       PRES   REMARKS
ST. JOSEPH     MIX PCPN  32  32 100 E6        30.09F FOG     WCI  26
WARRENSBURG    FOG       34  32  93 NE7       30.09F VSB 1/2 WCI  28
WHITEMAN AFB   DRIZZLE   35  35 100 NE3       30.08F FOG
CLINTON        LGT RAIN  37  37 100 E8        30.08F WCI  31
SEDALIA        FOG       36  35  96 E9        30.10F VSB 3/4 WCI  29
WARSAW         NOT AVBL
CHILLICOTHE      N/A     32  32 100 NE6       30.15F WCI  26
KIRKSVILLE     FOG       31  31 100 E7        30.16F VSB 1/4 WCI  24

$$

MOZ041-047>049-056>058-063>065-088>090-097-160800-
...EASTERN AND SOUTHERN MISSOURI...

CITY           SKY/WX    TMP DP  RH WIND       PRES   REMARKS
ST. LOUIS INTL FOG       38  36  92 E7        30.18F VSB 1/4 WCI  33
SPIRIT OF STL  FOG       37  37 100 SE3       30.19F VSB 1
COLUMBIA       FOG       35  35 100 E8        30.13F VSB 1/2 WCI  29
JEFFERSON CITY CLOUDY    36  35  96 E5        30.15F WCI  32
ROLLA          CLOUDY    34  34 100 SE10      30.11F FOG     WCI  26
OSAGE BEACH    CLOUDY    36  36 100 E6        30.12F WCI  31
SPRINGFIELD    CLOUDY    44  43  96 SE16      30.04F FOG
BRANSON        FOG       41  41 100 SE14      30.08S VSB<1/4 WCI  33
JOPLIN         LGT RAIN  47  47 100 MISG      29.98F FOG
WEST PLAINS    FOG       41  40  96 E9        30.12F VSB 1/2

$$

IAZ060-094-KSZ022-034>040-054-083-096-NEZ052-066-093-160800-
...KANSAS...SOUTHEAST NEBRASKA AND IOWA...

CITY           SKY/WX    TMP DP  RH WIND       PRES   REMARKS
TOPEKA         CLOUDY    34  31  88 NE7       30.05F WCI  28
MANHATTAN      LGT RAIN  33  32  96 NE12      30.02F FOG     WCI  24
EMPORIA        CLOUDY    34  34 100 NE10      29.97F FOG     WCI  26
CHANUTE        HVY RAIN  41  40  96 E10       29.97F FOG     WCI  35
WICHITA        LGT RAIN  37  37 100 N7        29.92F FOG     WCI  32
OMAHA          FRZ RAIN  32  29  88 E3        30.13F FOG
LINCOLN        CLOUDY    32  31  96 E5        30.11F WCI  27
FALLS CITY     CLOUDY    32  31  96 E7        30.08F FOG     WCI  26
LAMONI         CLOUDY    31  30  96 E6        30.12F FOG     WCI  25
DES MOINES     FRZ RAIN  31  28  89 SE9       30.18F FOG     WCI  23

$$





USA.gov is the U.S. government's official web portal to all federal, state and local government web resources and services.